Вернуться в каталог

STARLINK-36798

АктивенСвязьSSO
NORAD 67798·PAYLOAD·🇺🇸 United States

Запущен Feb 15, 2026 с Vandenberg Space Force Base

Loading…

Ближайшие Пролёты (ближайшие 24 часа)

TLE

СвежийSource: CelesTrak SupGP

Эпоха: Sep 14, 2026, 21:13 UTC

1 67798C 26032B   26257.88451389  .00083731  00000+0  26012-2 0  2579
2 67798  97.2851  84.3316 0001672 102.1697 209.3268 15.33372437    17

Отслеживайте STARLINK-36798 в реальном времени с AllMySat

Download on the App Store